When you browse on this site, cookies collect data to enhance your experience and personalize the content and advertising you see.
Visit our Privacy Policy to learn more. By continuing to use the site, you agree to this use of cookies and data.
  • In Latvia
  • List of Countries
  • For 7 days
  • Water Temperature
  • Satellite Maps
  • Weather Map
  • Weather Widgets
  • user-avatar
    Login

    Hourly Weather Megri

    Today, 19 April, Friday

    Time Temperature Precipitation Wind Pressure Humidity
    00:00 +7°C° 0 mm 1 mps 618 mmHg 68%
    01:00 +7°C° 0 mm 1 mps 618 mmHg 69%
    02:00 +6°C° 0 mm 1 mps 618 mmHg 71%
    03:00 +6°C° 0 mm 1 mps 617 mmHg 75%
    04:00 +6°C° 0 mm 1 mps 617 mmHg 75%
    05:00 +6°C° 0 mm 1 mps 617 mmHg 75%
    06:00 +5°C° 0 mm 1 mps 617 mmHg 76%
    07:00 +7°C° 0 mm 1 mps 617 mmHg 69%
    08:00 +7°C° 0 mm 2 mps 618 mmHg 62%
    09:00 +8°C° 0 mm 2 mps 618 mmHg 57%
    10:00 +9°C° 0.1 mm 2 mps 618 mmHg 53%
    11:00 +9°C° 0.1 mm 2 mps 618 mmHg 49%
    12:00 +10°C° 0.1 mm 3 mps 618 mmHg 45%
    13:00 +10°C° 0.2 mm 3 mps 618 mmHg 44%
    14:00 +10°C° 0.2 mm 3 mps 618 mmHg 43%
    15:00 +10°C° 0.2 mm 3 mps 617 mmHg 41%
    16:00 +9°C° 0.4 mm 3 mps 617 mmHg 50%
    17:00 +7°C° 0.4 mm 3 mps 616 mmHg 59%
    18:00 +5°C° 0.4 mm 3 mps 616 mmHg 68%
    19:00 +4°C° 1.6 mm 3 mps 616 mmHg 73%
    20:00 +3°C° 1.6 mm 4 mps 615 mmHg 79%
    21:00 +1°C° 1.6 mm 4 mps 615 mmHg 84%
    22:00 0°C° 0.5 mm 4 mps 615 mmHg 85%
    23:00 -1°C° 0.5 mm 4 mps 615 mmHg 86%

    Tomorrow, 20 April, Saturday

    Time Temperature Precipitation Wind Pressure Humidity
    00:00 -1°C° 0.5 mm 4 mps 614 mmHg 87%
    01:00 -1°C° 0.7 mm 4 mps 614 mmHg 87%
    02:00 -2°C° 0.7 mm 4 mps 614 mmHg 88%
    03:00 -2°C° 0.7 mm 4 mps 614 mmHg 88%
    04:00 -2°C° 0.3 mm 4 mps 614 mmHg 88%
    05:00 -2°C° 0.3 mm 4 mps 614 mmHg 88%
    06:00 -2°C° 0.3 mm 3 mps 614 mmHg 88%
    07:00 -2°C° 1.2 mm 3 mps 614 mmHg 88%
    08:00 -1°C° 1.2 mm 3 mps 615 mmHg 88%
    09:00 -1°C° 1.2 mm 3 mps 615 mmHg 88%
    10:00 -1°C° 1.1 mm 3 mps 615 mmHg 87%
    11:00 -1°C° 1.1 mm 3 mps 616 mmHg 86%
    12:00 -1°C° 1.1 mm 2 mps 616 mmHg 86%
    13:00 +1°C° 0.2 mm 2 mps 616 mmHg 84%
    14:00 +2°C° 0.2 mm 2 mps 617 mmHg 83%
    15:00 +2°C° 0.2 mm 2 mps 617 mmHg 82%
    16:00 +2°C° 0 mm 2 mps 617 mmHg 82%
    17:00 +2°C° 0 mm 2 mps 617 mmHg 81%
    18:00 +2°C° 0 mm 2 mps 617 mmHg 81%
    19:00 +1°C° 0 mm 2 mps 618 mmHg 83%
    20:00 -1°C° 0 mm 2 mps 618 mmHg 85%
    21:00 -2°C° 0 mm 2 mps 618 mmHg 87%
    22:00 -2°C° 0 mm 2 mps 618 mmHg 87%
    23:00 -2°C° 0 mm 2 mps 618 mmHg 87%

    Day after tomorrow, 21 April, Sunday

    Time Temperature Precipitation Wind Pressure Humidity
    00:00 -3°C° 0 mm 2 mps 618 mmHg 87%
    01:00 -3°C° 0 mm 2 mps 618 mmHg 86%
    02:00 -3°C° 0 mm 2 mps 617 mmHg 85%
    03:00 -3°C° 0 mm 2 mps 617 mmHg 85%
    04:00 -2°C° 0 mm 2 mps 618 mmHg 84%
    05:00 -2°C° 0 mm 2 mps 618 mmHg 84%
    06:00 -2°C° 0 mm 2 mps 618 mmHg 84%
    07:00 -1°C° 0 mm 2 mps 618 mmHg 83%
    08:00 +2°C° 0 mm 2 mps 619 mmHg 82%
    09:00 +2°C° 0 mm 3 mps 619 mmHg 81%
    10:00 +2°C° 0.1 mm 3 mps 619 mmHg 80%
    11:00 +3°C° 0.1 mm 3 mps 619 mmHg 78%
    12:00 +4°C° 0.1 mm 3 mps 619 mmHg 77%
    13:00 +4°C° 0.1 mm 3 mps 618 mmHg 77%
    14:00 +4°C° 0.1 mm 3 mps 618 mmHg 76%
    15:00 +4°C° 0.1 mm 3 mps 618 mmHg 76%
    16:00 +3°C° 0 mm 4 mps 617 mmHg 78%
    17:00 +3°C° 0 mm 4 mps 617 mmHg 79%
    18:00 +1°C° 0 mm 4 mps 617 mmHg 81%
    19:00 0°C° 0.2 mm 4 mps 617 mmHg 82%
    20:00 -1°C° 0.2 mm 4 mps 617 mmHg 83%
    21:00 -1°C° 0.2 mm 4 mps 617 mmHg 84%
    22:00 -2°C° 0.1 mm 4 mps 617 mmHg 85%
    23:00 -2°C° 0.1 mm 4 mps 617 mmHg 86%

    22 April, Monday

    Time Temperature Precipitation Wind Pressure Humidity
    00:00 -3°C° 0.1 mm 4 mps 617 mmHg 87%
    01:00 -3°C° 0 mm 4 mps 617 mmHg 87%
    02:00 -3°C° 0 mm 4 mps 617 mmHg 87%
    03:00 -3°C° 0 mm 4 mps 617 mmHg 87%
    04:00 -3°C° 0 mm 4 mps 617 mmHg 87%
    05:00 -3°C° 0 mm 4 mps 617 mmHg 86%
    06:00 -3°C° 0 mm 4 mps 617 mmHg 85%
    07:00 -2°C° 0.2 mm 4 mps 617 mmHg 83%
    08:00 -1°C° 0.2 mm 4 mps 617 mmHg 81%
    09:00 -1°C° 0.2 mm 5 mps 618 mmHg 78%
    10:00 0°C° 0.6 mm 5 mps 617 mmHg 79%
    11:00 -1°C° 0.6 mm 6 mps 617 mmHg 79%
    12:00 -1°C° 0.6 mm 6 mps 616 mmHg 80%
    13:00 -1°C° 0.2 mm 6 mps 616 mmHg 79%
    14:00 -1°C° 0.2 mm 6 mps 616 mmHg 78%
    15:00 -1°C° 0.2 mm 6 mps 616 mmHg 78%
    16:00 -2°C° 0.9 mm 6 mps 616 mmHg 80%
    17:00 -1°C° 0.9 mm 5 mps 616 mmHg 83%
    18:00 -2°C° 0.9 mm 5 mps 616 mmHg 86%
    19:00 -4°C° 0.4 mm 5 mps 616 mmHg 86%
    20:00 -3°C° 0.4 mm 4 mps 617 mmHg 87%
    21:00 -3°C° 0.4 mm 4 mps 617 mmHg 87%
    22:00 -3°C° 0.5 mm 4 mps 617 mmHg 88%
    23:00 -3°C° 0.5 mm 4 mps 618 mmHg 89%

    23 April, Tuesday

    Time Temperature Precipitation Wind Pressure Humidity
    00:00 -3°C° 0.5 mm 4 mps 618 mmHg 89%
    01:00 -2°C° 0.5 mm 3 mps 618 mmHg 90%
    02:00 -4°C° 0.5 mm 3 mps 618 mmHg 90%
    03:00 -4°C° 0.5 mm 3 mps 618 mmHg 90%
    04:00 -4°C° 0.3 mm 3 mps 619 mmHg 90%
    05:00 -4°C° 0.3 mm 3 mps 619 mmHg 89%
    06:00 -4°C° 0.3 mm 3 mps 620 mmHg 89%
    07:00 -2°C° 0.2 mm 3 mps 620 mmHg 86%
    08:00 -2°C° 0.2 mm 3 mps 621 mmHg 84%
    09:00 -1°C° 0.2 mm 3 mps 622 mmHg 81%
    10:00 0°C° 0.2 mm 3 mps 622 mmHg 80%
    11:00 +1°C° 0.2 mm 3 mps 623 mmHg 79%
    12:00 +1°C° 0.2 mm 3 mps 623 mmHg 77%
    13:00 +2°C° 0 mm 3 mps 623 mmHg 76%
    14:00 +2°C° 0 mm 3 mps 623 mmHg 75%
    15:00 +2°C° 0 mm 3 mps 623 mmHg 74%
    16:00 +2°C° 0 mm 3 mps 623 mmHg 74%
    17:00 +2°C° 0 mm 3 mps 624 mmHg 75%
    18:00 +2°C° 0 mm 2 mps 624 mmHg 75%
    19:00 +1°C° 0 mm 2 mps 624 mmHg 78%
    20:00 -1°C° 0 mm 2 mps 624 mmHg 82%
    21:00 -2°C° 0 mm 2 mps 624 mmHg 85%
    22:00 -2°C° 0 mm 2 mps 624 mmHg 85%
    23:00 -2°C° 0 mm 2 mps 624 mmHg 85%

    24 April, Wednesday

    Time Temperature Precipitation Wind Pressure Humidity
    00:00 -3°C° 0 mm 2 mps 624 mmHg 84%
    01:00 -3°C° 0 mm 2 mps 624 mmHg 83%
    02:00 -3°C° 0 mm 2 mps 624 mmHg 82%
    03:00 -1°C° 0 mm 1 mps 624 mmHg 80%
    04:00 -1°C° 0 mm 1 mps 624 mmHg 79%
    05:00 -2°C° 0 mm 2 mps 624 mmHg 77%
    06:00 -2°C° 0 mm 2 mps 625 mmHg 76%
    07:00 -1°C° 0 mm 2 mps 625 mmHg 72%
    08:00 +1°C° 0 mm 2 mps 625 mmHg 68%
    09:00 +4°C° 0 mm 1 mps 626 mmHg 63%
    10:00 +4°C° 0 mm 1 mps 625 mmHg 65%
    11:00 +4°C° 0 mm 2 mps 625 mmHg 66%
    12:00 +5°C° 0 mm 2 mps 625 mmHg 68%
    13:00 +5°C° 0 mm 2 mps 625 mmHg 68%
    14:00 +5°C° 0 mm 2 mps 625 mmHg 68%
    15:00 +6°C° 0 mm 2 mps 624 mmHg 68%
    16:00 +5°C° 0.1 mm 2 mps 624 mmHg 67%
    17:00 +5°C° 0.1 mm 2 mps 624 mmHg 66%
    18:00 +4°C° 0.1 mm 2 mps 624 mmHg 65%
    19:00 +3°C° 0.1 mm 2 mps 624 mmHg 68%
    20:00 +2°C° 0.1 mm 2 mps 624 mmHg 72%
    21:00 +1°C° 0.1 mm 2 mps 624 mmHg 76%
    22:00 +1°C° 0.1 mm 2 mps 624 mmHg 77%
    23:00 +1°C° 0.1 mm 2 mps 624 mmHg 78%
    Show more